| time (UTC) | temp F | wind direction | speed knots | gust knots | rain 1hr in | rain 24hr in | rain mn in | humidity % | barometer mb |
| 20260506224530 | 60 | 254 | 0.9 | 9.6 | 0.00 | 0.00 | 0.00 | 72 | 1020.4 |
| 20260506223032 | 60 | 258 | 2.6 | 7.0 | 0.00 | 0.00 | 0.00 | 72 | 1020.4 |
| 20260506221527 | 59 | 209 | 2.6 | 8.7 | 0.00 | 0.00 | 0.00 | 73 | 1020.6 |
| 20260506220036 | 60 | 285 | 2.6 | 7.0 | 0.00 | 0.00 | 0.00 | 71 | 1020.5 |
| 20260506214530 | 60 | 242 | 4.3 | 12.2 | 0.00 | 0.00 | 0.00 | 70 | 1020.6 |
| 20260506213028 | 61 | 224 | 3.5 | 8.7 | 0.00 | 0.00 | 0.00 | 68 | 1020.6 |
| 20260506211527 | 60 | 194 | 2.6 | 10.4 | 0.00 | 0.00 | 0.00 | 71 | 1020.5 |
| 20260506210030 | 58 | 172 | 3.5 | 7.8 | 0.00 | 0.00 | 0.00 | 75 | 1020.6 |
| 20260506204535 | 58 | 0 | 2.6 | 7.0 | 0.00 | 0.00 | 0.00 | 77 | 1020.6 |
| 20260506203028 | 57 | 288 | 2.6 | 12.2 | 0.00 | 0.00 | 0.00 | 78 | 1020.6 |
| 20260506201528 | 57 | 296 | 2.6 | 10.4 | 0.00 | 0.00 | 0.00 | 79 | 1020.5 |
| 20260506200030 | 57 | 190 | 0.9 | 7.8 | 0.00 | 0.00 | 0.00 | 79 | 1020.6 |
| 20260506194535 | 57 | 201 | 2.6 | 8.7 | 0.00 | 0.00 | 0.00 | 80 | 1020.4 |
| 20260506193030 | 56 | 219 | 1.7 | 8.7 | 0.00 | 0.00 | 0.00 | 81 | 1020.5 |
| 20260506191530 | 55 | 225 | 0.9 | 5.2 | 0.00 | 0.00 | 0.00 | 83 | 1020.4 |
| 20260506190027 | 55 | 242 | 1.7 | 11.3 | 0.00 | 0.00 | 0.00 | 84 | 1020.5 |
| 20260506184530 | 55 | 199 | 2.6 | 7.8 | 0.00 | 0.00 | 0.00 | 84 | 1020.5 |
| 20260506183030 | 55 | 143 | 3.5 | 12.2 | 0.00 | 0.00 | 0.00 | 85 | 1020.1 |
| 20260506181530 | 54 | 199 | 0.9 | 7.8 | 0.00 | 0.00 | 0.00 | 86 | 1020.2 |
| 20260506180030 | 54 | 0 | 0.9 | 6.1 | 0.00 | 0.00 | 0.00 | 87 | 1020.3 |
| 20260506174529 | 54 | 132 | 1.7 | 7.0 | 0.00 | 0.00 | 0.00 | 87 | 1020.2 |
| 20260506173030 | 53 | 163 | 0.9 | 4.3 | 0.00 | 0.00 | 0.00 | 88 | 1020.4 |
| 20260506171530 | 53 | 209 | 0.9 | 7.0 | 0.00 | 0.00 | 0.00 | 88 | 1020.3 |
| 20260506170029 | 53 | 267 | 0.9 | 6.1 | 0.00 | 0.00 | 0.00 | 89 | 1020.3 |
| 20260506164528 | 52 | 153 | 1.7 | 7.0 | 0.00 | 0.00 | 0.00 | 89 | 1020.2 |
| 20260506163030 | 52 | 203 | 1.7 | 4.3 | 0.00 | 0.00 | 0.00 | 89 | 1020.2 |
| 20260506161532 | 52 | 209 | 0.9 | 5.2 | 0.00 | 0.00 | 0.00 | 90 | 1020.1 |
| 20260506160038 | 52 | 215 | 0.9 | 4.3 | 0.00 | 0.00 | 0.00 | 90 | 1020.2 |
| 20260506154532 | 51 | 210 | 0.9 | 5.2 | 0.00 | 0.00 | 0.00 | 90 | 1020.0 |
| 20260506153029 | 52 | 174 | 0.0 | 4.3 | 0.00 | 0.00 | 0.00 | 91 | 1019.9 |
| 20260506151532 | 51 | 249 | 0.0 | 2.6 | 0.00 | 0.00 | 0.00 | 91 | 1019.9 |
| 20260506150029 | 51 | 215 | 0.0 | 4.3 | 0.00 | 0.00 | 0.00 | 90 | 1020.0 |
| 20260506144527 | 51 | 243 | 0.9 | 3.5 | 0.00 | 0.00 | 0.00 | 90 | 1019.6 |
| 20260506143033 | 51 | 213 | 1.7 | 4.3 | 0.00 | 0.00 | 0.00 | 90 | 1019.4 |
| 20260506141528 | 51 | 230 | 0.9 | 3.5 | 0.00 | 0.00 | 0.00 | 90 | 1019.5 |
| 20260506140030 | 51 | 0 | 0.9 | 4.3 | 0.00 | 0.00 | 0.00 | 90 | 1019.5 |
| 20260506134530 | 51 | 204 | 3.5 | 6.1 | 0.00 | 0.00 | 0.00 | 90 | 1019.5 |
| 20260506133030 | 51 | 0 | 0.9 | 3.5 | 0.00 | 0.00 | 0.00 | 90 | 1019.4 |
| 20260506131543 | 51 | 0 | 0.0 | 3.5 | 0.00 | 0.00 | 0.00 | 90 | 1019.2 |
| 20260506130037 | 52 | 223 | 1.7 | 3.5 | 0.00 | 0.00 | 0.00 | 90 | 1019.1 |
| 20260506124531 | 52 | 0 | 0.9 | 5.2 | 0.00 | 0.00 | 0.00 | 89 | 1018.9 |
| 20260506123028 | 52 | 238 | 0.9 | 3.5 | 0.00 | 0.00 | 0.00 | 89 | 1018.8 |
| 20260506121530 | 52 | 227 | 1.7 | 5.2 | 0.00 | 0.00 | 0.00 | 89 | 1018.7 |
| 20260506120028 | 52 | 248 | 0.9 | 3.5 | 0.00 | 0.00 | 0.00 | 90 | 1018.6 |
| 20260506114528 | 52 | 0 | 0.0 | 3.5 | 0.00 | 0.00 | 0.00 | 90 | 1018.6 |
| 20260506113030 | 52 | 192 | 0.0 | 1.7 | 0.00 | 0.00 | 0.00 | 90 | 1018.7 |
| 20260506111532 | 52 | 0 | 0.0 | 1.7 | 0.00 | 0.00 | 0.00 | 90 | 1018.6 |
| 20260506110028 | 52 | 0 | 0.0 | 2.6 | 0.00 | 0.00 | 0.00 | 90 | 1018.5 |
| 20260506104530 | 52 | 0 | 0.0 | 3.5 | 0.00 | 0.00 | 0.00 | 90 | 1018.4 |
| 20260506103037 | 52 | 0 | 0.0 | 2.6 | 0.00 | 0.00 | 0.00 | 91 | 1018.2 |
| 20260506101528 | 52 | 0 | 0.0 | 1.7 | 0.00 | 0.00 | 0.00 | 91 | 1018.0 |
| 20260506100035 | 52 | 0 | 0.0 | 0.0 | 0.00 | 0.00 | 0.00 | 91 | 1017.8 |
| 20260506094535 | 51 | 0 | 0.0 | 0.0 | 0.00 | 0.00 | 0.00 | 92 | 1017.8 |
| 20260506093035 | 51 | 0 | 0.0 | 0.0 | 0.00 | 0.00 | 0.00 | 92 | 1017.6 |
| 20260506091531 | 50 | 0 | 0.0 | 0.0 | 0.00 | 0.00 | 0.00 | 91 | 1017.8 |
| 20260506090028 | 50 | 0 | 0.0 | 0.0 | 0.00 | 0.00 | 0.00 | 91 | 1017.7 |
| 20260506083030 | 49 | 0 | 0.0 | 0.0 | 0.00 | 0.00 | 0.00 | 91 | 1017.5 |
| 20260506081533 | 49 | 0 | 0.0 | 0.0 | 0.00 | 0.00 | 0.00 | 90 | 1017.6 |
| 20260506073028 | 50 | 0 | 0.0 | 0.0 | 0.00 | 0.00 | 0.00 | 89 | 1017.4 |
| 20260506071529 | 50 | 0 | 0.0 | 0.0 | 0.00 | 0.00 | 0.00 | 89 | 1017.3 |
| 20260506061528 | 52 | 0 | 0.0 | 0.0 | 0.00 | 0.00 | 0.00 | 88 | 1016.6 |
| 20260506044527 | 55 | 0 | 0.0 | 0.0 | 0.00 | 0.00 | 0.00 | 84 | 1016.2 |
| 20260506043029 | 56 | 0 | 0.0 | 0.0 | 0.00 | 0.00 | 0.00 | 83 | 1016.0 |
| 20260506041528 | 57 | 0 | 0.0 | 0.0 | 0.00 | 0.00 | 0.00 | 82 | 1015.8 |
| 20260506040028 | 58 | 0 | 0.0 | 0.0 | 0.00 | 0.00 | 0.00 | 80 | 1015.8 |
| 20260506034528 | 59 | 0 | 0.0 | 0.0 | 0.00 | 0.00 | 0.00 | 79 | 1015.6 |
| 20260506033029 | 60 | 0 | 0.0 | 0.0 | 0.00 | 0.00 | 0.00 | 77 | 1015.4 |
| 20260506031530 | 61 | 0 | 0.0 | 1.7 | 0.00 | 0.00 | 0.00 | 76 | 1015.2 |
| 20260506030035 | 62 | 182 | 0.9 | 2.6 | 0.00 | 0.00 | 0.00 | 74 | 1015.2 |
| 20260506024541 | 63 | 231 | 0.0 | 3.5 | 0.00 | 0.00 | 0.00 | 73 | 1015.2 |
| 20260506023030 | 63 | 192 | 0.9 | 4.3 | 0.00 | 0.00 | 0.00 | 72 | 1015.2 |
| 20260506021530 | 64 | 232 | 1.7 | 4.3 | 0.00 | 0.00 | 0.00 | 71 | 1015.1 |
| 20260506020030 | 64 | 0 | 0.9 | 6.1 | 0.00 | 0.00 | 0.00 | 70 | 1015.0 |
| 20260506014535 | 65 | 0 | 1.7 | 6.1 | 0.00 | 0.00 | 0.00 | 67 | 1015.1 |
| 20260506013028 | 66 | 215 | 1.7 | 5.2 | 0.00 | 0.00 | 0.00 | 66 | 1015.0 |
| 20260506011530 | 66 | 0 | 1.7 | 5.2 | 0.00 | 0.00 | 0.00 | 68 | 1015.0 |
| 20260506010033 | 66 | 233 | 2.6 | 6.1 | 0.00 | 0.00 | 0.00 | 66 | 1015.1 |
| 20260506004530 | 67 | 207 | 2.6 | 5.2 | 0.00 | 0.00 | 0.00 | 67 | 1015.1 |
| 20260506003033 | 66 | 206 | 1.7 | 6.1 | 0.00 | 0.00 | 0.00 | 66 | 1015.1 |
| 20260506001532 | 66 | 241 | 1.7 | 5.2 | 0.00 | 0.00 | 0.00 | 67 | 1015.2 |
| 20260506000028 | 66 | 298 | 1.7 | 5.2 | 0.00 | 0.00 | 0.00 | 66 | 1015.3 |
| 20260505234534 | 65 | 265 | 0.0 | 7.0 | 0.00 | 0.00 | 0.00 | 67 | 1015.5 |
| 20260505233027 | 65 | 278 | 1.7 | 6.1 | 0.00 | 0.00 | 0.00 | 68 | 1015.6 |
| 20260505231529 | 65 | 202 | 2.6 | 8.7 | 0.00 | 0.00 | 0.00 | 71 | 1015.6 |
| 20260505230046 | 64 | 263 | 0.0 | 5.2 | 0.00 | 0.00 | 0.00 | 70 | 1015.8 |